Wind_Speed
12 12 12 12 12 11 11 11 11 11 11 11 11 10 10 10 10 10 9 9 9 10 9 8 8 9 8 8 8 9 13 15 14 10 9 14 12 10 7 10 14 18 20 20 17 14 10 7 8 10 7 4 2 1 3 2 1 1 1 1 0 2 2 3 5 4 5 7 8 7 5 5 7 2 2 1 5 7 6 5 6 7 9 14 19 26 27 26
13 13 13 13 12 12 12 12 12 11 11 12 11 11 10 10 11 10 10 10 10 10 9 9 8 7 7 7 7 9 13 15 13 12 17 16 8 9 12 13 17 22 22 19 20 18 11 7 8 9 5 3 3 3 4 2 2 2 1 2 2 2 2 2 5 6 6 9 9 8 5 5 7 4 1 4 7 7 8 8 9 11 13 16 22 26 25 26
14 14 14 13 13 13 12 12 12 12 12 12 12 11 10 10 11 10 10 10 10 9 9 9 8 7 7 6 6 9 11 11 7 10 14 13 12 12 17 18 18 22 22 18 20 18 13 11 12 9 4 2 3 4 4 2 2 2 1 1 3 2 1 2 5 5 6 10 11 8 5 4 4 2 0 5 9 8 8 9 10 13 14 17 18 22 25 23
14 14 14 14 14 13 13 13 13 12 12 12 12 11 10 11 11 10 10 10 10 9 9 9 8 7 6 5 5 7 7 5 3 5 5 7 14 17 20 20 19 21 20 15 15 14 9 10 12 7 3 2 2 3 4 3 2 2 3 2 3 4 2 2 4 5 8 9 10 8 6 6 3 0 2 8 10 6 7 9 12 15 18 18 17 20 22 21
15 16 15 15 15 14 14 14 13 13 13 12 12 12 11 10 10 10 9 9 10 9 9 9 8 7 5 4 4 5 4 1 3 4 2 4 12 21 23 19 19 21 20 13 11 11 5 4 6 4 3 2 2 3 4 6 4 1 3 2 4 4 2 3 4 7 9 7 7 7 7 6 2 2 3 7 8 5 7 10 13 16 18 18 18 19 19 19
17 17 17 16 16 15 15 14 14 13 13 12 12 12 11 10 9 9 8 9 9 9 9 8 8 7 3 2 2 2 1 1 4 4 3 3 10 23 24 19 18 19 22 15 9 10 5 2 4 3 3 2 4 5 3 7 5 1 3 2 5 4 4 6 5 8 9 7 7 6 5 5 4 5 1 2 5 2 6 11 14 16 18 21 19 18 16 16
19 19 18 17 17 16 16 15 15 14 14 13 13 12 12 11 9 8 7 8 8 9 9 8 8 5 2 0 0 1 2 5 8 5 4 1 9 21 22 19 17 17 21 16 9 8 5 5 4 3 2 2 4 7 4 6 7 3 3 1 5 4 5 7 7 8 8 6 5 4 5 6 6 7 1 1 2 1 7 13 14 17 20 21 18 15 15 16
20 20 19 19 18 18 17 16 16 15 15 14 14 13 11 11 9 8 7 7 8 8 8 7 6 3 1 2 1 2 1 7 8 6 7 4 10 20 21 18 17 17 21 17 11 9 6 6 5 3 2 5 4 5 4 6 5 5 3 1 4 4 6 9 10 10 8 5 3 4 6 3 3 5 2 1 2 2 12 15 13 16 17 16 15 14 14 14
21 20 20 20 19 18 18 17 17 16 16 16 15 13 12 11 9 8 7 7 7 7 7 6 4 0 2 1 0 2 3 5 3 6 8 6 13 22 21 18 18 19 18 15 12 10 7 6 6 5 4 5 5 4 5 6 2 6 5 3 7 7 8 9 11 11 7 4 4 6 4 3 2 2 3 3 2 9 15 15 14 15 15 14 13 13 14 13
21 21 21 20 20 19 18 17 17 17 17 17 16 14 12 10 9 7 6 7 7 7 6 3 1 2 2 1 2 1 4 3 3 8 8 8 16 24 22 19 21 21 16 12 13 11 7 7 7 6 3 4 5 4 6 6 2 7 5 8 8 7 7 9 12 10 7 5 5 8 5 3 3 4 1 4 4 14 17 15 14 13 14 13 12 12 13 14
22 22 21 20 20 19 18 17 17 17 17 17 17 15 12 10 8 7 7 7 6 6 5 2 2 4 3 2 3 3 4 3 4 8 8 9 17 24 25 22 22 24 17 10 13 16 11 6 3 2 3 3 4 3 4 4 1 7 9 12 8 7 6 9 12 8 7 5 6 10 7 4 3 5 4 5 5 15 17 16 15 13 12 12 12 11 11 14
23 22 21 20 19 18 18 17 17 17 18 18 17 14 11 9 8 7 6 5 5 4 2 1 4 6 3 2 4 8 3 4 5 7 8 10 16 21 24 24 24 25 20 11 12 20 16 7 1 1 3 2 4 3 1 2 2 6 12 12 6 5 5 7 9 6 5 6 6 10 6 3 0 3 5 3 4 14 18 16 15 13 11 11 11 10 9 13
23 23 22 20 19 18 17 16 17 17 18 17 16 13 10 8 7 6 5 3 4 3 1 3 6 6 2 1 7 8 5 7 6 6 7 9 13 17 21 22 21 23 22 14 11 17 19 12 5 4 3 2 4 4 1 2 0 7 9 9 6 4 2 3 7 6 7 8 8 7 4 2 4 3 3 1 2 14 17 15 15 12 11 11 10 10 9 12
23 23 21 20 18 17 16 16 17 17 17 17 14 11 8 6 5 4 2 1 1 1 2 6 8 5 2 5 9 5 5 6 6 8 7 9 11 11 16 18 17 20 21 15 10 11 15 13 7 4 4 4 6 5 2 3 2 7 6 3 3 2 2 2 6 8 7 8 10 5 3 4 6 4 2 2 1 11 17 15 15 12 11 12 10 11 10 11
23 22 20 19 17 16 15 15 16 17 17 16 12 9 6 4 2 3 2 2 2 3 6 9 8 4 1 7 8 4 3 3 9 14 11 11 11 7 12 15 14 18 19 16 13 9 9 6 3 3 4 5 4 2 2 3 2 4 4 1 1 2 3 3 6 8 6 8 8 3 3 4 7 6 2 1 2 8 16 15 14 12 12 13 10 11 10 10
23 21 20 18 17 16 15 15 16 17 17 15 11 6 3 1 2 3 3 4 5 8 9 8 6 3 1 5 5 2 3 6 10 14 13 13 13 8 11 13 10 14 16 15 13 9 7 3 2 4 2 3 4 3 2 3 2 2 3 3 2 3 3 3 3 6 7 11 5 2 4 4 5 6 5 5 4 7 14 14 13 11 11 13 10 10 10 9
23 22 20 18 17 16 15 16 17 17 17 14 9 4 1 1 2 3 5 6 6 10 9 3 2 3 2 6 4 2 4 8 10 12 15 17 15 8 10 8 4 7 9 10 9 7 4 2 3 3 0 1 2 4 3 1 2 3 2 3 2 4 5 4 2 4 7 11 5 1 5 5 5 7 8 8 6 7 14 13 12 11 10 11 10 9 9 8
24 23 20 19 17 17 17 17 18 19 18 13 8 4 1 3 4 5 8 9 7 6 2 1 1 1 3 5 3 3 6 6 8 11 15 17 16 10 9 6 3 5 1 3 4 3 2 1 0 0 1 1 2 4 3 3 4 5 3 3 2 3 4 5 3 5 9 9 6 5 5 5 7 8 8 9 6 7 13 13 11 11 11 11 10 9 8 8
24 23 21 19 18 17 18 18 18 20 18 13 8 3 4 5 5 4 6 7 4 1 2 2 3 1 1 4 5 8 11 9 6 10 14 16 14 11 7 4 4 6 3 1 2 3 2 1 1 2 2 3 3 5 5 3 3 4 4 5 6 5 4 5 3 6 11 9 7 7 6 6 9 9 8 6 4 6 11 11 10 10 11 10 10 9 8 8
24 23 21 19 18 18 18 18 19 19 17 13 7 4 4 4 3 0 2 3 4 5 4 4 6 2 4 5 6 9 12 8 5 8 12 16 12 7 4 2 4 4 3 3 3 3 3 2 3 4 5 6 5 5 5 2 2 2 2 3 7 6 5 6 5 6 10 6 5 6 4 5 8 8 5 2 1 4 8 11 11 11 11 10 10 10 9 9
25 23 21 19 18 18 18 19 20 17 14 13 8 4 3 1 2 1 3 4 7 8 8 6 8 7 7 8 7 5 6 4 4 3 10 15 12 6 2 2 4 1 2 3 2 1 2 2 6 7 8 8 4 5 4 1 2 1 1 3 5 4 3 4 5 8 8 3 2 6 8 6 6 7 6 3 2 2 4 9 12 13 12 10 10 10 9 8
24 22 21 19 18 18 17 19 20 14 13 14 8 2 2 2 2 2 1 3 7 8 9 7 5 7 10 13 14 6 1 2 6 4 7 11 8 6 1 3 5 3 2 1 1 3 1 4 9 9 6 4 1 3 4 1 2 2 1 3 4 3 2 6 7 9 7 3 3 8 8 4 5 6 6 4 1 3 3 3 7 11 12 10 10 9 9 9
24 23 21 18 17 17 16 19 18 12 13 15 7 1 5 9 7 7 3 2 6 3 5 4 4 5 6 10 10 6 4 3 4 4 6 8 4 5 4 4 5 3 1 2 3 1 2 6 9 7 4 2 3 1 3 1 3 2 3 3 3 5 4 4 5 8 7 5 7 8 5 3 3 6 5 3 3 2 5 4 2 5 9 11 10 8 10 11
24 22 20 17 16 15 16 19 12 10 17 16 7 7 16 19 14 9 2 0 4 4 3 5 5 5 5 4 4 8 3 4 5 4 6 9 4 3 4 4 5 3 2 4 6 5 6 7 4 3 3 4 3 4 2 2 3 2 4 4 3 6 5 4 8 11 10 7 8 8 4 2 0 4 4 1 2 2 4 5 4 3 3 5 7 8 9 11
24 22 20 18 15 14 16 13 4 11 19 11 6 15 21 19 13 5 1 2 3 5 4 3 2 3 5 2 4 6 2 2 5 4 7 10 7 3 2 3 4 4 5 4 5 5 9 8 1 2 4 4 4 5 4 5 2 3 4 8 8 7 6 9 13 11 6 3 6 6 3 1 2 3 5 4 2 4 6 5 6 6 3 3 5 7 8 8
24 21 19 17 16 16 13 4 4 15 15 5 9 19 18 14 9 2 2 4 2 4 2 0 0 3 4 1 2 3 4 2 5 4 7 10 10 6 2 1 1 4 6 4 3 3 6 5 4 5 6 5 5 5 4 6 4 3 4 9 10 7 10 15 15 9 4 4 8 6 1 1 3 5 7 6 7 9 8 6 7 7 5 4 4 6 6 6
23 20 18 16 16 16 8 2 10 13 4 5 15 18 15 13 5 1 2 5 2 3 1 1 1 0 2 1 3 5 2 3 3 2 6 11 8 4 4 3 1 3 4 3 2 3 5 4 4 6 5 5 5 5 5 7 6 4 4 7 9 8 13 17 15 7 3 6 4 5 0 4 3 5 7 7 8 10 9 9 8 8 7 5 5 5 6 7
22 19 17 14 14 15 8 7 12 8 2 10 16 14 14 11 2 2 4 3 2 2 1 2 1 1 2 1 4 4 3 1 2 3 4 10 7 3 3 5 4 4 3 5 4 5 4 5 6 7 5 5 5 6 7 9 5 7 5 3 5 10 15 16 12 5 4 7 4 5 1 4 2 3 6 8 8 10 12 13 11 11 11 7 6 6 6 6
21 19 16 12 12 12 9 10 10 6 8 13 15 15 14 8 3 3 4 2 1 2 1 1 1 2 2 2 3 1 1 1 2 4 0 5 3 3 4 6 6 5 3 5 6 6 3 6 7 7 5 6 7 8 8 10 7 7 5 2 4 5 9 7 5 3 4 5 6 8 4 3 2 2 6 9 8 11 14 12 12 13 13 10 7 7 6 5
19 17 14 12 10 8 9 11 8 6 11 14 15 15 10 5 4 4 3 1 1 2 2 1 1 1 3 4 2 3 1 1 1 0 3 2 1 3 2 2 3 2 3 1 5 6 5 5 4 5 6 7 8 8 8 12 10 4 4 2 8 7 6 6 4 4 4 1 5 10 8 4 1 3 7 9 7 10 13 10 10 13 13 12 8 6 8 6
17 16 14 11 10 7 6 8 7 9 13 15 15 11 5 3 4 5 2 0 1 3 2 1 2 1 4 5 1 2 1 3 2 3 3 2 3 3 1 1 2 1 3 4 4 5 5 4 4 4 6 6 5 5 6 10 9 3 3 4 5 4 5 6 4 5 3 3 4 7 7 2 1 4 7 8 4 6 12 12 13 15 15 14 10 8 8 6
15 14 12 10 10 8 7 7 11 13 13 12 10 5 4 3 4 2 1 2 1 2 2 2 1 1 2 3 1 1 1 1 1 3 4 3 2 2 2 3 2 0 3 3 3 5 3 4 4 4 4 6 6 3 3 3 5 4 4 5 5 1 2 3 2 2 1 5 4 7 8 1 4 4 2 6 5 5 9 10 12 15 15 14 12 9 7 6
13 11 11 10 10 12 12 13 13 11 11 9 5 4 5 4 4 2 3 2 1 3 3 2 2 3 4 3 1 2 0 2 2 2 3 3 2 3 3 3 4 3 1 3 2 4 3 4 4 3 4 4 7 5 3 3 5 6 6 5 4 3 3 2 1 1 2 6 5 7 10 3 4 2 4 5 5 6 7 7 8 10 12 12 11 8 5 5
12 9 9 11 13 14 13 11 8 7 8 6 4 4 6 5 1 3 2 3 3 3 2 1 1 4 4 1 3 2 1 2 2 3 1 3 3 2 3 2 2 4 3 1 2 0 1 4 4 4 4 2 6 7 6 5 4 4 5 5 5 4 4 4 4 3 3 3 1 5 7 3 2 2 5 6 3 4 6 5 7 5 2 3 3 2 3 5
10 8 10 12 13 12 8 5 4 5 5 4 5 5 5 2 3 2 2 4 3 3 4 3 3 5 3 2 3 1 3 1 0 4 3 3 2 1 2 3 3 2 4 1 3 2 2 4 7 5 5 2 4 5 6 7 3 2 3 5 3 5 5 4 4 5 5 3 2 3 3 2 2 3 5 4 3 7 9 7 9 8 7 7 5 3 2 1
9 8 9 10 12 10 6 4 2 2 2 4 6 5 2 1 2 1 1 3 2 2 4 5 6 5 4 4 4 4 1 1 1 2 2 2 2 2 2 3 3 1 4 4 3 1 1 4 6 5 6 4 5 5 4 5 3 1 2 4 4 3 6 5 1 1 5 4 1 1 0 3 1 2 3 3 6 7 7 7 7 7 9 10 7 4 3 3
11 8 7 10 13 10 6 2 2 1 3 5 5 2 1 2 2 2 3 3 2 2 4 4 4 3 2 2 4 6 3 1 2 2 2 1 1 4 5 4 3 2 3 4 3 2 2 4 6 2 4 6 3 3 2 3 5 4 3 4 3 1 3 4 3 2 3 3 1 1 1 2 1 1 2 3 6 5 5 7 6 6 8 9 8 7 5 5
11 9 7 9 10 9 5 2 4 2 4 5 4 2 0 1 1 1 3 4 2 4 6 3 2 2 1 1 2 6 4 1 1 2 1 2 1 1 3 4 3 4 4 1 2 0 2 2 7 2 3 6 3 5 3 4 3 5 5 3 2 2 0 1 3 2 3 3 1 2 2 2 2 2 2 1 4 5 5 6 6 6 7 7 8 9 7 7
7 5 4 4 6 6 3 5 4 4 5 4 3 2 1 2 3 3 4 3 2 4 5 1 1 2 2 2 1 4 4 1 0 2 3 2 1 1 1 2 3 6 6 2 3 1 1 2 4 5 3 4 4 4 2 2 4 4 3 2 1 2 3 2 2 3 4 4 2 1 1 2 3 3 1 1 2 5 6 5 6 7 6 6 6 8 7 7
3 2 2 6 9 2 6 7 4 5 4 1 1 1 2 2 3 5 6 5 3 2 2 1 2 3 2 2 1 1 2 1 1 3 2 1 1 1 2 2 3 5 5 4 4 1 1 3 2 6 6 2 0 0 4 4 3 3 3 2 1 1 2 2 1 2 4 4 3 3 1 3 3 2 2 3 4 6 7 8 8 8 8 7 5 5 5 5
3 2 2 8 9 5 8 6 3 3 2 1 2 3 3 1 2 6 7 7 4 1 2 3 3 3 1 1 3 2 2 3 3 3 2 2 2 0 2 2 3 4 4 5 5 2 1 1 0 4 5 1 4 5 3 5 5 5 4 3 3 3 3 3 1 2 2 4 4 4 3 4 4 0 3 5 5 7 9 11 11 10 10 8 5 6 5 5
4 1 3 8 5 5 5 4 1 1 2 1 2 3 2 3 3 5 6 7 5 2 3 3 2 2 2 1 1 2 3 3 3 3 2 1 2 2 2 4 3 2 3 1 3 2 1 2 2 2 3 3 8 8 2 2 2 4 3 2 3 4 4 5 3 2 2 3 2 3 2 2 2 1 4 6 6 7 9 11 10 9 9 8 6 6 6 6
2 2 4 10 3 6 6 3 3 2 1 4 2 2 2 3 3 5 5 6 5 4 4 3 2 2 1 1 1 3 4 3 3 3 1 1 1 1 4 6 3 3 4 2 3 3 0 2 2 3 4 4 7 6 5 4 4 4 3 1 3 2 3 5 5 3 4 3 2 3 1 1 0 1 4 6 7 8 8 10 11 8 7 8 7 6 6 6
1 4 4 9 3 8 4 1 3 2 4 3 2 3 3 4 4 5 5 5 5 3 3 3 2 2 1 2 3 3 2 2 2 3 2 2 2 2 4 6 5 4 2 0 1 2 2 2 2 2 3 5 6 6 7 7 5 2 2 4 1 4 5 5 3 4 3 4 4 4 2 2 3 3 3 6 8 8 7 8 10 9 6 7 7 7 5 5
1 1 3 6 4 5 3 2 4 1 3 2 5 4 4 3 3 4 5 5 5 3 2 3 3 2 2 3 4 4 4 4 2 3 3 3 4 4 6 8 7 4 2 2 2 1 2 2 2 3 2 1 1 2 3 3 4 2 2 5 3 4 8 5 3 4 2 4 4 4 3 3 5 6 5 5 7 8 7 7 8 9 8 7 7 7 5 5
2 2 3 6 6 4 1 1 3 3 1 3 4 4 4 3 3 4 5 6 6 5 3 3 4 3 4 5 4 4 6 5 3 2 4 4 4 3 5 7 7 7 6 5 4 3 3 3 3 4 4 3 4 4 4 3 2 3 2 5 6 2 6 6 4 3 4 5 3 2 6 10 10 10 8 6 7 9 8 8 8 8 9 8 8 8 7 6
3 1 2 2 3 4 3 3 3 3 2 4 3 2 4 3 3 5 5 4 5 5 4 5 7 5 3 4 4 3 5 5 5 4 3 4 3 3 6 6 8 10 9 7 6 4 4 4 5 2 3 2 4 5 6 3 1 2 3 2 5 2 6 7 3 5 7 8 2 4 10 15 13 12 11 9 9 9 9 9 8 8 9 9 8 9 10 9
2 0 1 1 0 1 1 3 3 4 5 4 3 2 3 5 4 4 4 2 3 5 4 5 9 8 5 3 5 3 5 4 5 5 4 4 4 5 7 5 6 9 7 5 5 4 5 2 5 3 1 2 4 6 6 4 1 2 2 2 4 2 5 7 4 4 8 6 5 10 14 13 12 12 11 9 9 9 9 9 9 9 10 10 10 10 11 10
2 1 2 2 1 3 3 4 2 5 6 4 3 3 2 4 4 2 3 2 4 6 4 4 6 8 7 6 6 3 4 3 3 4 3 4 4 4 5 4 5 7 6 5 4 3 4 2 4 3 2 5 8 9 9 7 4 4 5 4 3 3 4 5 3 4 5 3 6 15 14 7 7 10 9 8 8 9 9 9 9 10 10 10 11 10 10 10
1 0 2 3 2 2 3 3 1 4 5 3 3 3 2 4 4 3 3 4 3 4 4 4 3 4 6 8 7 5 1 4 2 2 1 2 3 2 2 1 3 6 6 4 4 3 3 2 4 3 3 5 8 11 12 9 5 4 6 7 6 7 6 5 5 6 8 7 9 14 12 6 5 8 9 8 8 9 11 10 9 9 9 10 11 11 10 10
2 2 0 2 2 4 3 3 3 5 4 3 2 2 3 3 2 2 4 4 3 2 2 3 1 2 4 8 8 4 2 5 4 4 4 2 0 1 1 1 1 4 5 3 3 4 4 2 3 5 4 3 5 11 14 10 5 5 6 8 7 4 2 3 2 3 7 10 11 11 9 6 7 9 10 10 11 12 12 10 9 8 8 10 11 11 10 9
5 2 2 3 2 4 3 2 3 5 2 2 1 2 3 2 2 4 4 4 4 4 3 4 4 2 4 7 7 6 6 5 6 7 5 5 4 4 4 4 3 1 1 2 2 2 3 3 2 3 3 3 5 9 10 8 6 4 4 5 6 4 1 3 2 2 9 14 11 8 7 8 11 13 12 12 14 13 11 9 9 9 9 9 10 11 10 8
Wind_Direction
348 346 344 341 338 336 334 332 330 326 326 323 321 322 320 321 320 321 320 319 324 324 326 328 328 329 325 324 321 312 312 311 308 303 254 249 249 227 207 190 178 159 166 178 170 153 144 161 186 188 175 161 178 200 173 161 130 122 122 121 120 201 187 165 162 157 143 148 154 165 190 155 138 177 276 116 103 118 116 91 89 83 95 110 125 136 140 142
346 345 343 341 338 336 335 332 329 326 324 321 320 319 317 317 316 317 316 319 324 322 325 324 326 327 322 324 317 315 319 316 313 290 253 245 246 209 186 178 173 159 159 171 170 156 147 168 181 180 166 152 181 169 169 165 145 177 170 119 196 219 200 158 146 146 148 147 151 162 172 159 155 162 199 136 130 127 114 114 111 101 104 115 130 139 142 145
346 344 341 339 337 336 335 331 329 326 324 321 319 317 316 314 312 312 314 318 321 322 324 321 321 321 322 318 314 322 323 324 313 272 257 239 224 195 169 171 172 166 164 170 177 167 156 167 172 170 158 171 191 173 175 170 173 195 154 179 231 206 183 136 132 140 142 140 145 155 157 146 153 145 103 138 133 133 133 138 132 126 130 133 139 143 147 150
345 343 341 338 337 336 334 332 329 326 324 322 321 320 314 311 310 309 313 318 318 323 325 321 318 315 321 313 313 326 325 331 282 246 260 229 210 183 167 171 173 177 176 174 183 173 150 154 165 170 161 197 208 178 188 182 178 184 169 200 204 168 150 109 110 113 118 132 143 143 140 135 146 52 127 145 137 143 160 158 150 144 142 143 146 149 152 154
346 344 343 340 338 336 335 333 332 329 326 323 324 322 317 313 309 307 313 317 317 324 326 320 318 317 316 311 318 326 340 28 248 250 277 241 197 175 171 174 177 186 185 177 180 174 165 137 149 177 191 218 202 178 196 187 177 214 218 201 157 159 132 109 106 116 117 119 130 136 146 141 143 123 132 159 156 163 166 159 154 147 145 146 149 151 154 154
346 345 344 341 339 337 336 335 334 334 331 328 325 322 320 316 310 310 314 317 316 322 325 320 321 322 306 303 314 321 73 192 276 268 257 247 189 176 173 176 176 186 189 182 167 167 180 116 122 173 195 230 204 203 200 172 172 233 256 203 157 152 123 129 122 120 115 115 133 136 135 126 130 132 105 181 161 167 146 145 149 146 144 145 147 151 154 156
346 344 344 343 341 338 338 338 338 338 335 331 325 321 319 317 314 312 315 315 314 319 320 321 324 321 314 38 210 29 90 259 274 242 219 221 187 178 171 174 171 178 186 181 163 160 162 144 156 167 184 258 215 217 207 158 173 208 279 209 154 142 122 124 118 113 106 117 135 116 127 141 150 144 80 165 172 267 133 136 142 141 142 145 149 154 156 161
346 345 343 342 340 338 339 341 342 341 339 335 330 324 319 318 316 312 315 312 313 318 314 319 324 310 8 108 168 355 316 253 262 223 217 209 180 174 168 172 172 175 181 182 173 157 153 160 178 161 192 245 229 225 179 139 177 212 239 165 112 101 110 113 111 108 104 114 108 117 143 137 132 130 104 172 217 173 133 134 139 141 144 149 154 156 158 164
347 346 343 342 339 338 338 340 343 342 341 339 334 328 320 317 315 315 316 313 317 313 308 319 319 224 121 131 133 329 267 242 240 204 211 202 180 175 172 176 179 178 179 187 183 163 165 175 186 189 214 247 258 259 162 143 210 215 207 93 80 85 105 108 100 96 96 99 93 120 122 45 0 97 82 293 218 141 132 137 145 146 150 154 157 157 160 163
347 346 344 342 339 337 337 339 342 342 340 339 338 332 324 319 318 319 315 315 315 301 306 314 259 153 152 208 115 250 259 254 214 199 207 201 184 179 180 183 182 181 178 183 188 184 182 176 183 201 235 271 266 253 172 165 192 194 163 83 104 122 114 102 97 101 108 97 100 122 111 67 322 334 100 257 186 140 136 143 150 151 155 157 158 159 162 165
346 345 343 341 339 337 337 339 341 341 340 341 342 337 329 324 321 319 312 311 302 292 302 283 188 158 162 120 129 226 270 289 239 216 219 208 191 188 191 192 187 184 177 172 194 201 197 183 172 186 225 274 286 284 188 179 105 164 129 88 117 137 109 100 104 124 123 83 91 116 109 82 333 307 195 189 158 144 142 148 155 157 161 160 160 161 165 169
345 344 342 341 339 337 337 338 338 339 341 343 344 341 334 328 323 315 310 306 289 284 285 216 154 154 151 99 200 228 267 332 284 237 229 215 203 200 200 198 194 190 183 174 201 206 202 201 196 225 237 314 323 311 239 261 15 148 129 105 118 105 85 93 104 137 121 91 115 121 102 73 145 250 197 165 139 148 147 152 159 162 166 164 163 164 170 174
345 344 343 340 339 338 337 337 337 338 340 344 346 345 338 328 324 313 307 296 272 269 222 161 154 156 124 238 237 238 269 314 307 245 221 214 212 207 202 200 199 199 195 190 201 207 209 220 231 241 266 319 289 273 280 314 89 137 124 120 132 88 52 85 110 140 113 120 166 150 116 153 175 211 231 310 132 153 152 158 164 166 169 168 168 169 175 178
347 345 342 340 339 338 337 337 337 336 338 343 346 343 335 328 331 322 322 289 244 200 164 148 149 143 116 260 267 292 299 294 269 236 216 208 212 208 204 203 203 208 207 206 207 204 211 225 235 262 277 231 243 279 351 4 99 127 103 99 140 124 168 141 140 152 120 146 191 178 124 183 183 189 246 329 321 162 157 162 168 167 168 168 172 172 177 179
348 345 343 341 339 337 338 337 336 334 336 342 345 341 328 327 359 16 46 119 138 141 149 144 149 136 28 279 279 319 327 264 234 232 224 203 189 184 199 202 213 216 213 215 216 217 224 238 236 244 266 225 209 309 353 17 40 134 125 105 270 120 147 145 158 176 150 160 202 197 128 179 180 177 165 70 302 177 160 165 171 165 163 167 174 175 178 181
349 347 345 342 339 339 339 336 335 334 337 342 346 347 332 341 92 63 88 127 129 133 132 136 166 158 62 286 287 312 250 223 229 227 223 209 188 174 182 192 215 215 215 221 227 253 269 276 244 214 227 215 179 99 50 39 49 194 146 150 195 135 148 143 161 205 160 146 192 240 149 158 173 179 161 162 243 190 165 168 170 166 164 167 175 177 177 179
350 349 346 343 341 341 340 337 336 337 341 344 346 350 289 138 113 106 114 118 120 135 131 116 172 160 262 283 306 328 254 229 229 217 212 212 204 184 155 167 202 193 214 236 248 282 276 227 235 235 64 106 151 98 86 149 170 200 131 116 169 143 159 159 161 218 158 143 161 177 161 158 157 171 167 176 213 186 169 171 171 169 168 171 178 181 179 174
351 349 347 345 343 343 341 338 339 341 345 349 351 350 194 145 111 117 123 116 107 128 139 339 126 118 277 287 294 290 299 268 233 209 205 209 213 202 158 152 133 126 109 296 264 262 221 242 72 178 346 50 117 113 142 191 155 161 156 123 116 136 177 187 179 181 163 155 155 150 166 157 144 160 173 185 197 181 174 172 172 172 172 178 183 186 182 174
351 350 347 346 344 344 341 338 342 344 347 358 6 25 132 125 107 122 130 124 117 141 272 233 172 105 256 269 278 286 312 309 243 207 204 208 214 212 184 151 101 107 94 29 267 230 168 8 52 149 241 218 193 161 166 188 114 121 165 160 151 161 203 199 164 162 162 156 162 169 167 152 152 166 178 184 178 170 175 173 173 177 179 182 188 192 184 177
351 349 347 347 344 344 342 338 344 345 351 7 20 75 117 105 81 243 193 172 206 233 255 201 184 247 291 274 288 306 320 312 233 198 198 204 200 193 195 150 86 88 134 165 241 257 133 133 226 213 213 216 209 172 171 229 348 69 122 157 162 168 196 181 150 160 159 144 173 172 116 121 149 159 151 86 49 166 172 178 178 180 184 186 190 192 185 184
350 349 347 347 344 344 342 337 344 347 353 4 18 86 147 155 86 297 261 241 238 225 237 220 193 233 267 264 276 315 341 319 259 220 188 191 176 151 206 161 124 154 233 186 229 317 99 173 233 224 215 222 204 152 161 239 300 290 111 133 160 173 191 147 124 151 151 103 130 118 88 102 128 135 124 103 206 208 172 183 185 185 186 189 191 186 184 185
350 349 347 346 343 344 341 336 342 347 352 358 8 92 209 227 183 264 307 287 268 221 220 233 213 245 260 261 262 252 85 305 298 289 181 171 154 149 154 87 137 208 288 61 37 359 1 236 242 231 216 238 263 129 147 193 247 240 138 135 166 181 109 82 107 146 144 68 87 101 98 106 96 101 106 114 182 331 329 216 193 189 185 190 193 180 179 178
349 348 346 344 342 344 341 335 339 346 350 347 339 257 328 332 304 295 329 295 286 246 199 207 209 241 261 267 251 192 148 201 248 268 182 152 142 158 132 99 151 184 355 122 149 149 221 244 247 234 200 210 279 225 140 183 265 211 144 140 180 187 151 94 123 132 106 99 122 110 93 74 86 104 103 119 122 16 304 294 282 203 190 198 195 175 175 172
348 347 346 340 341 347 340 333 336 349 344 334 317 330 346 346 330 310 326 271 298 296 218 192 185 206 236 268 193 154 148 195 201 232 178 147 131 146 145 148 151 166 221 183 169 189 246 267 275 249 210 182 236 263 168 168 264 241 176 183 204 192 174 130 128 113 81 89 127 120 77 0 132 128 131 182 121 121 261 282 289 250 222 216 193 171 178 173
346 346 344 339 341 347 339 331 337 345 338 326 331 347 349 350 340 326 66 56 328 297 264 197 182 232 248 254 165 163 143 197 210 199 170 156 148 134 168 164 137 191 219 182 167 215 258 266 210 232 241 181 204 252 197 167 222 288 207 200 210 198 151 125 131 125 93 112 174 162 107 333 270 165 175 197 181 201 222 246 252 232 221 232 192 174 183 177
345 344 344 339 339 344 344 340 337 339 334 319 345 348 349 352 343 310 98 55 357 299 298 89 151 258 274 274 154 118 83 263 248 180 156 166 164 140 147 194 128 198 201 170 175 224 257 245 166 207 233 185 198 239 210 165 157 284 237 204 208 187 140 139 147 150 134 157 200 215 147 135 235 217 195 188 196 209 213 223 236 228 213 208 198 182 176 175
343 343 344 339 338 347 352 314 328 336 334 326 341 344 345 352 352 205 66 44 352 294 275 284 356 218 270 254 115 98 120 265 283 162 163 175 178 119 138 199 184 199 189 144 209 237 230 231 192 205 215 194 203 231 215 160 145 245 228 185 199 172 146 157 163 163 139 117 156 250 223 126 219 227 185 182 202 213 215 218 225 228 225 210 196 196 177 171
341 341 342 338 338 343 341 322 326 329 314 327 335 339 341 348 9 141 75 67 285 298 245 256 302 243 276 322 83 109 200 197 102 253 201 167 170 92 157 201 171 200 203 142 214 259 212 214 214 203 204 205 209 219 201 160 168 247 227 183 213 178 160 164 164 150 123 115 144 248 213 113 247 235 157 172 206 220 216 213 213 215 223 217 194 200 187 170
341 339 337 336 334 334 331 321 317 316 321 327 333 335 338 350 45 85 77 95 283 291 248 312 316 261 306 25 40 349 275 70 140 255 10 142 166 96 170 201 171 211 248 155 211 262 231 214 206 184 194 213 218 220 189 167 197 239 220 312 9 129 139 132 122 87 102 128 178 214 193 118 250 241 159 174 208 222 214 208 207 207 215 218 200 198 192 169
341 337 332 331 327 326 324 314 312 329 326 325 328 330 338 10 64 68 52 56 354 268 252 8 281 243 85 81 340 312 291 291 241 200 77 111 353 32 158 191 133 196 282 263 236 256 261 246 207 176 199 210 215 213 181 183 206 206 160 94 45 61 74 67 46 46 78 185 212 203 193 139 155 227 189 190 207 208 202 199 200 201 209 214 205 197 196 180
342 334 326 321 315 310 313 310 318 327 320 319 323 331 1 34 67 82 67 271 243 290 300 278 272 356 102 125 233 303 235 281 337 95 123 115 33 15 17 4 49 49 340 329 289 283 288 256 228 224 212 192 196 216 194 192 202 165 127 137 84 40 34 44 9 29 76 253 242 192 187 131 196 229 213 219 224 186 193 196 193 196 203 210 206 197 196 186
342 331 318 313 309 294 281 293 310 315 313 315 327 356 66 43 30 68 278 305 329 279 267 232 217 160 125 121 179 246 179 283 343 132 162 143 124 208 192 187 190 76 325 295 303 320 297 235 247 275 237 178 161 215 236 175 163 148 142 138 121 87 29 42 348 20 130 256 251 166 161 204 249 231 260 248 225 181 196 198 191 194 197 204 207 198 191 181
342 328 314 310 305 294 294 305 313 314 312 318 344 49 80 71 38 348 287 321 318 241 234 207 155 137 117 80 275 251 169 239 233 177 171 114 110 239 239 188 157 120 205 235 313 344 322 290 293 294 275 192 156 172 209 177 164 164 161 150 141 133 125 156 182 77 201 252 261 163 161 216 254 241 334 297 231 173 180 186 179 190 196 201 206 193 171 172
342 329 317 309 302 301 306 315 317 313 318 339 46 62 58 69 6 318 310 277 262 277 294 277 124 109 106 135 232 202 123 243 195 138 110 54 61 315 314 303 162 126 128 204 291 212 138 297 273 220 250 204 168 180 177 157 152 172 166 142 150 161 153 169 179 167 184 224 243 144 164 208 228 246 308 306 289 116 121 129 120 117 138 180 196 157 142 173
346 330 318 306 300 303 314 326 315 308 328 19 64 62 63 66 270 295 305 277 283 316 324 359 73 76 50 314 281 206 145 219 74 105 82 65 93 333 326 304 290 144 125 116 255 202 139 252 252 244 254 212 186 201 160 122 113 209 153 115 155 191 153 139 176 172 148 127 115 144 187 249 206 263 311 328 21 81 91 92 102 102 88 84 70 29 0 231
353 336 319 302 299 299 307 318 281 290 6 59 62 52 77 199 241 179 276 298 325 319 330 12 53 55 3 330 328 333 77 87 16 66 62 102 123 355 330 284 299 185 150 146 214 237 71 266 277 304 290 244 199 207 163 130 159 200 119 146 210 192 129 116 114 64 98 112 171 161 270 297 248 297 338 41 59 69 87 93 104 120 118 111 105 89 36 27
356 351 318 292 295 291 287 285 191 141 48 78 74 50 211 223 209 206 296 330 356 26 46 40 46 55 349 333 340 332 353 23 7 57 35 39 59 342 326 290 284 244 196 162 186 205 146 270 294 323 282 268 195 154 58 87 136 131 139 199 217 65 79 104 101 31 66 121 235 343 206 247 200 258 332 67 81 79 97 106 108 119 123 113 101 109 107 86
349 348 313 288 294 286 269 185 149 95 66 74 44 5 231 297 282 264 323 333 0 50 63 59 46 72 53 41 341 331 6 28 350 84 90 30 32 298 323 295 286 311 299 185 118 97 111 292 291 264 252 292 359 79 50 6 57 125 150 177 140 117 329 73 125 149 114 128 208 347 324 252 193 214 291 52 116 126 121 115 112 107 107 104 100 110 115 102
353 356 322 320 337 311 230 155 129 60 61 60 21 349 241 279 312 349 350 351 49 67 66 72 55 52 34 67 339 333 18 72 274 93 104 71 108 225 358 291 291 332 334 53 96 307 95 106 280 288 298 306 357 61 172 284 14 66 81 42 61 131 160 150 139 152 134 138 176 105 343 269 227 215 208 52 123 128 118 103 97 88 80 87 105 116 117 118
24 28 290 355 7 24 141 126 82 55 57 36 206 246 279 276 316 344 3 30 56 83 88 115 72 60 13 8 59 8 12 347 52 83 79 54 129 262 335 311 303 336 354 47 71 341 36 93 264 303 334 4 3 263 197 184 135 90 59 33 77 85 127 136 75 83 125 139 161 147 193 265 260 219 136 104 96 103 101 90 86 85 84 81 88 104 112 112
45 38 292 13 32 120 124 84 34 65 80 311 229 240 293 347 8 342 356 31 45 143 124 123 106 94 127 15 30 31 17 4 26 68 61 28 97 177 338 317 295 330 9 29 30 24 11 65 169 313 346 10 250 260 221 188 173 140 135 171 171 139 126 119 45 321 100 125 156 157 181 258 287 278 111 95 86 86 88 88 83 79 82 78 69 78 86 85
57 64 275 11 40 153 98 52 301 81 115 260 252 243 311 33 31 349 353 19 31 32 51 85 105 90 107 98 38 25 46 29 8 41 74 37 128 161 299 298 287 9 65 38 310 280 179 93 62 293 279 260 268 280 278 200 166 106 116 155 143 129 121 127 176 221 85 84 102 107 145 259 308 62 110 101 92 86 86 89 86 80 80 80 71 63 63 72
80 232 304 3 39 155 77 20 292 10 270 246 268 292 350 41 27 358 8 18 18 24 22 21 71 73 59 74 65 40 41 42 14 21 33 337 49 177 290 313 347 53 63 44 308 296 87 69 27 308 292 300 298 311 354 17 49 61 17 10 113 128 121 135 163 158 122 135 120 82 83 241 134 104 110 111 110 101 97 100 100 96 93 97 96 80 62 64
155 233 305 2 51 150 107 313 264 329 289 279 30 354 349 48 43 12 20 13 353 14 29 354 2 54 73 83 78 53 31 68 41 2 18 39 348 320 338 355 18 37 36 57 283 328 4 37 46 19 355 351 345 350 357 358 17 56 306 307 332 100 97 109 106 79 111 186 165 130 164 198 150 143 116 118 123 112 106 111 110 109 109 106 103 95 84 81
52 258 278 340 23 119 136 191 177 214 290 25 46 3 0 44 33 18 50 33 357 7 44 336 323 25 55 72 73 42 35 73 65 351 17 19 327 328 360 9 15 12 342 241 236 32 47 44 82 101 98 80 52 358 334 320 325 324 306 318 323 122 122 123 108 90 135 185 159 145 156 140 142 154 153 143 134 120 113 114 111 113 118 112 105 103 105 103
63 42 310 326 5 50 42 221 127 137 137 77 50 9 31 47 324 351 56 50 7 6 44 7 341 21 38 46 67 40 29 48 65 46 30 354 313 308 346 8 18 3 354 3 12 61 93 45 52 121 139 163 193 229 264 269 325 322 323 347 332 196 131 103 108 144 167 154 160 206 154 143 156 170 170 162 144 134 131 126 121 120 115 110 108 109 107 102
77 60 7 335 340 14 2 352 45 79 107 97 78 11 42 53 347 353 33 45 1 3 49 29 14 25 19 35 75 35 2 31 46 36 8 322 291 298 330 12 26 2 358 10 15 58 95 28 6 73 142 170 218 258 291 311 39 295 271 357 338 286 129 116 156 189 150 133 180 219 157 152 167 175 171 167 153 142 139 133 129 122 112 108 109 107 104 99
60 179 70 90 243 324 1 328 7 59 66 77 73 26 37 48 39 12 0 4 0 11 51 34 13 19 21 51 92 33 350 38 41 6 345 334 335 343 343 356 12 6 12 12 9 72 103 29 352 345 37 51 7 340 341 357 24 304 303 2 343 319 141 146 184 180 149 151 192 180 165 163 169 167 164 161 150 139 132 127 121 114 110 110 108 104 102 99
44 66 314 30 107 213 236 277 301 71 65 66 58 36 58 58 42 355 329 6 14 5 48 64 5 8 31 53 90 61 8 58 44 351 343 346 348 8 5 346 340 357 26 24 6 82 110 21 349 340 349 28 15 357 354 358 358 351 347 353 14 54 97 112 108 100 98 99 150 152 149 142 145 152 152 142 134 126 119 116 116 112 111 110 106 103 103 102
51 90 307 9 17 282 270 302 31 79 46 43 67 43 63 64 39 6 5 42 49 351 24 75 17 358 36 49 71 80 102 147 126 318 283 0 355 5 5 306 298 333 9 31 356 28 82 12 344 17 22 5 7 1 351 348 7 26 359 2 45 73 72 79 102 97 81 81 116 129 123 107 123 138 134 127 124 123 123 125 122 118 118 114 107 104 105 104
325 247 302 81 22 336 335 346 55 84 33 8 75 48 26 32 31 71 41 34 83 70 61 124 125 0 31 39 47 36 260 183 185 249 224 175 271 245 253 259 265 327 350 26 5 6 54 27 352 45 48 318 353 6 344 333 8 30 0 357 10 31 87 114 122 123 123 123 120 121 128 147 155 142 134 132 132 132 134 132 126 123 124 117 110 106 105 104
354 317 28 95 83 353 358 354 38 78 42 322 83 80 52 16 12 98 84 25 38 76 122 143 125 73 38 29 19 336 287 225 218 242 219 191 216 209 209 251 260 268 309 56 44 16 65 69 16 62 90 274 322 354 338 337 18 3 315 331 340 334 112 105 46 102 140 139 139 156 166 157 151 147 141 141 143 143 144 139 133 131 124 115 110 107 104 102
Height
790 789 789 787 786 785 784 782 782 780 780 779 778 778 777 776 776 775 774 773 772 771 770 770 769 768 767 766 765 764 763 762 760 761 758 749 746 750 751 752 753 754 756 758 760 762 765 768 769 770 772 774 776 776 776 775 776 782 792 799 800 799 795 791 792 793 792 795 796 795 794 796 799 796 791 789 793 795 798 797 796 795 794 797 800 803 806 809
790 789 787 787 786 784 783 782 781 780 779 778 777 777 776 775 775 774 773 772 771 770 769 769 768 768 766 766 765 764 763 761 760 758 750 744 746 748 749 751 753 753 754 757 758 759 764 767 768 769 773 776 776 776 777 776 778 785 792 797 797 793 787 781 784 786 786 791 794 794 793 794 796 795 790 795 801 799 802 803 800 802 801 801 803 805 808 810
788 788 787 786 785 783 783 781 780 779 778 777 776 775 774 774 773 772 772 771 770 769 769 768 767 767 766 766 764 764 763 761 760 752 742 742 745 746 748 751 752 753 754 756 757 759 762 763 765 769 773 778 777 776 780 779 780 783 788 795 792 784 782 779 780 782 782 786 792 794 792 792 793 791 791 797 802 802 805 805 803 806 806 804 805 806 809 811
788 787 785 784 783 782 781 780 779 778 777 776 775 774 773 772 772 771 770 770 769 769 768 767 767 766 766 765 765 764 763 763 755 744 740 741 743 745 748 750 751 753 754 756 759 761 762 763 765 767 774 781 777 777 782 780 780 782 784 790 784 779 783 780 778 779 781 785 790 792 791 793 792 789 792 796 803 807 804 801 801 803 803 804 805 806 809 812
787 786 785 783 782 781 780 779 778 777 776 775 774 773 772 771 771 770 769 769 768 768 767 766 766 765 766 765 765 764 764 765 751 739 741 741 741 744 746 749 751 753 754 757 759 761 763 763 765 769 776 781 779 780 781 775 775 781 781 780 777 777 784 782 778 779 781 785 789 791 792 794 792 790 793 796 803 805 798 796 797 797 799 801 804 806 809 812
787 785 784 782 781 780 779 778 777 776 775 774 773 772 771 770 769 769 768 768 767 767 766 765 765 765 765 765 765 764 765 763 747 739 742 740 742 744 746 749 750 752 754 757 759 761 764 764 768 774 777 779 780 780 777 771 772 782 779 774 775 774 780 782 779 780 782 787 790 790 791 791 794 795 794 796 799 797 791 792 795 796 797 800 804 806 809 812
786 784 783 782 780 779 778 777 776 775 774 773 772 771 770 769 768 768 767 767 766 766 765 765 765 764 764 765 765 765 765 757 742 740 742 740 743 743 747 749 749 752 754 756 758 761 764 766 771 774 777 780 778 775 772 770 772 780 779 774 774 773 776 780 780 783 785 790 790 788 790 793 797 798 797 797 796 792 790 791 795 797 799 801 805 807 810 812
785 784 782 781 779 778 777 776 774 774 773 772 771 770 769 768 768 767 766 766 765 765 765 764 764 764 764 765 764 765 763 751 740 741 741 741 743 744 747 748 750 751 752 756 756 759 763 768 771 771 779 779 773 772 769 773 777 780 779 774 773 775 776 777 781 786 788 790 790 791 795 797 797 797 799 799 795 792 790 793 797 799 801 804 806 808 810 812
784 783 781 780 778 777 776 775 774 773 771 771 770 768 768 767 767 766 765 765 764 764 763 763 764 763 765 765 765 764 754 743 739 741 741 742 743 744 746 747 749 751 752 756 756 759 763 767 769 767 775 774 769 770 767 776 782 776 774 773 777 780 778 778 782 788 790 792 793 797 801 800 797 798 802 800 794 792 792 796 800 801 804 806 808 809 811 813
784 782 780 779 777 776 775 774 773 771 770 769 768 768 767 766 766 765 764 764 763 763 762 763 763 763 765 764 766 763 746 739 741 741 741 742 743 744 746 746 748 749 752 755 756 758 759 762 763 761 768 769 767 767 766 773 773 767 771 776 780 780 779 781 785 786 787 792 795 801 806 804 802 806 808 800 792 791 795 801 802 804 807 807 809 810 811 813
783 781 779 777 776 775 773 773 772 770 769 768 767 766 765 765 765 764 764 763 762 762 762 762 762 764 765 764 766 759 743 739 741 740 741 742 742 743 744 745 747 749 751 754 755 755 756 758 757 761 769 768 765 765 764 764 762 763 771 782 783 778 782 787 789 787 787 794 797 801 808 808 809 814 810 798 793 792 797 804 805 807 808 808 810 811 812 813
782 780 778 776 775 773 772 772 770 769 768 767 767 765 765 764 764 763 763 762 761 761 761 761 762 763 764 765 762 751 741 741 741 740 742 741 742 742 743 745 746 748 749 751 754 754 756 757 757 766 768 765 768 769 764 756 758 762 769 787 791 782 787 792 793 792 791 798 796 798 813 818 815 814 806 796 794 794 799 805 807 808 809 809 811 811 812 813
781 779 777 775 774 772 772 770 769 768 767 766 765 764 764 763 762 762 762 762 761 761 761 761 762 763 765 763 751 742 742 742 741 741 742 742 742 743 744 746 746 748 749 750 753 753 756 758 759 764 762 765 771 764 758 754 758 767 770 784 793 793 796 794 795 795 794 800 793 797 820 827 816 809 802 797 795 797 802 806 807 809 809 810 811 812 813 812
780 778 776 774 773 771 770 769 768 767 766 765 764 763 763 762 762 762 761 761 761 761 761 761 763 763 765 757 742 741 743 741 742 741 741 742 742 744 744 746 748 749 750 751 753 754 756 757 758 762 760 763 764 757 759 762 764 772 777 784 790 801 804 793 794 796 797 800 792 799 822 826 814 806 801 797 797 799 804 807 807 809 809 811 811 812 813 812
779 777 775 773 772 770 769 769 767 766 765 764 763 762 762 761 761 761 761 761 761 761 760 762 763 763 765 755 741 741 742 741 741 739 740 741 741 743 744 746 748 749 751 752 753 754 755 757 760 765 762 756 758 764 771 772 772 775 786 797 794 798 805 794 792 795 796 798 793 802 820 820 810 804 800 798 799 800 803 806 806 808 808 810 811 811 813 812
778 776 774 772 771 769 769 767 766 765 764 762 762 761 761 761 761 761 762 761 761 761 761 764 763 764 765 754 742 741 741 740 738 738 740 741 741 742 742 746 747 749 752 751 753 753 754 758 759 761 760 758 763 771 776 779 784 780 785 801 799 799 806 799 794 791 789 794 797 802 813 816 808 803 800 798 800 801 803 806 805 807 808 808 811 810 811 812
777 775 773 771 770 769 767 766 765 763 762 761 761 760 760 761 761 761 762 761 762 762 762 763 763 765 759 745 742 743 740 738 737 738 740 740 741 742 742 746 747 749 751 751 753 754 755 758 759 759 761 764 767 771 782 792 795 790 787 795 797 797 803 803 798 790 785 793 800 800 804 808 804 801 801 799 801 802 803 806 805 806 807 807 808 809 810 811
776 774 772 770 769 767 766 764 763 762 761 760 759 759 760 761 761 762 762 762 763 763 764 764 764 767 757 744 745 744 739 738 737 737 739 740 742 743 743 745 746 749 753 756 756 756 758 758 760 766 767 769 769 773 788 792 789 791 790 793 798 798 799 800 797 789 787 794 800 804 805 805 803 802 803 801 801 803 803 804 805 805 806 807 807 808 809 810
775 773 771 769 768 766 765 763 762 760 759 758 758 758 759 761 762 762 762 763 763 762 762 761 761 762 756 747 743 740 738 738 738 737 738 740 742 743 743 744 747 751 760 765 762 759 760 762 766 773 774 772 771 773 780 780 778 783 783 787 795 798 797 793 789 784 784 795 802 804 805 805 806 806 806 804 802 803 804 803 805 805 805 806 806 807 807 809
774 772 770 769 767 765 764 762 761 759 758 758 757 758 760 762 764 764 763 762 759 754 753 754 754 753 751 746 741 739 738 737 738 737 737 739 741 744 745 746 751 756 763 767 766 759 759 770 774 773 773 769 768 771 772 772 773 777 779 784 788 791 793 786 785 784 781 795 805 802 805 808 808 808 808 809 807 806 806 805 806 806 805 805 806 806 807 808
773 771 769 767 766 764 763 761 760 759 758 757 756 758 760 761 764 765 760 757 751 748 749 748 748 748 746 742 740 740 742 741 738 736 737 738 740 748 751 751 759 765 765 765 764 759 762 775 775 767 766 764 766 769 770 771 773 775 778 785 789 790 789 783 784 786 782 795 807 804 811 814 809 810 810 810 811 809 808 807 807 805 805 805 805 806 806 805
772 770 768 766 765 764 762 760 759 758 757 756 756 757 758 757 758 757 757 757 749 743 746 746 746 747 741 740 739 740 746 749 743 738 737 738 742 751 754 755 764 768 764 764 767 769 773 776 768 762 763 764 767 768 770 773 773 776 777 783 791 789 786 786 787 787 785 800 814 813 817 819 811 810 812 812 812 812 810 807 805 805 805 805 804 805 805 804
771 769 767 766 764 763 761 759 758 758 757 756 756 756 756 754 754 753 755 759 753 743 744 746 747 747 742 739 736 739 747 750 749 742 736 739 745 749 754 759 765 766 767 769 773 779 781 771 761 760 763 766 769 769 771 774 773 777 778 782 788 784 786 794 796 792 790 801 815 817 819 820 815 813 813 812 810 811 812 808 804 803 804 803 802 802 803 804
770 768 766 765 763 762 760 759 758 757 756 755 755 755 754 753 752 753 754 758 758 747 741 741 742 742 741 736 733 739 746 745 746 743 735 740 747 749 754 759 764 768 769 769 772 778 775 763 757 760 764 767 770 770 772 777 778 777 776 778 781 779 781 789 793 795 799 807 811 814 825 826 818 819 819 813 810 810 810 809 806 804 802 801 800 800 801 801
769 767 765 763 763 762 760 758 757 757 756 754 755 754 753 752 751 751 755 763 764 750 740 739 740 738 734 732 734 736 742 742 740 738 734 737 744 751 755 756 762 770 771 769 773 776 770 760 758 762 765 768 772 773 772 775 780 779 774 771 771 773 778 784 788 795 813 826 813 807 830 836 823 822 822 816 814 812 808 809 808 805 803 802 802 801 800 801
768 766 764 763 762 760 759 758 756 757 756 754 754 753 753 752 751 750 757 770 769 754 746 744 743 740 733 734 734 733 746 748 735 732 734 735 738 745 756 758 759 767 768 767 772 772 765 757 758 763 765 768 773 774 769 769 781 784 770 760 762 768 777 785 787 795 814 823 808 799 819 837 831 823 819 816 816 813 808 809 808 805 804 803 803 801 800 801
767 765 763 762 760 759 759 757 757 757 756 755 754 753 752 751 751 750 760 780 777 756 749 748 744 740 736 735 732 739 758 752 736 734 733 736 737 739 755 762 761 764 760 765 777 770 759 758 760 763 764 769 774 774 767 764 778 780 760 754 761 767 776 782 783 792 800 804 807 801 806 828 836 822 812 814 817 815 811 810 808 805 803 802 802 801 799 800
766 764 763 761 760 759 758 758 758 756 756 756 752 752 752 749 750 752 768 792 781 753 748 747 739 736 735 734 734 741 750 745 745 745 731 734 740 741 756 761 761 763 755 765 781 767 755 759 761 761 766 771 769 766 760 761 772 767 752 753 758 760 770 774 779 790 792 802 821 813 800 821 834 818 809 815 820 818 812 808 806 804 802 800 800 800 798 799
764 763 762 761 760 759 758 758 757 755 755 753 751 752 750 748 751 757 777 790 772 750 747 744 739 738 738 738 740 742 742 742 749 745 732 737 740 741 754 755 755 761 756 761 771 762 754 753 751 755 764 765 759 756 754 759 764 755 748 755 757 761 769 776 788 795 793 807 825 815 801 816 831 822 816 819 819 813 806 802 802 800 799 798 798 798 797 798
763 761 760 759 758 758 757 757 755 755 753 751 752 750 747 751 757 772 790 786 767 754 748 744 744 743 743 747 748 746 745 745 743 740 740 743 741 741 747 747 750 759 759 759 762 758 751 745 745 749 753 751 748 750 750 752 753 747 751 762 770 776 780 788 799 799 806 817 816 808 800 807 824 823 814 810 803 796 796 799 800 798 797 796 796 797 796 796
761 760 759 758 757 757 757 756 753 753 752 751 751 747 749 757 765 784 793 774 762 758 749 748 749 745 746 752 754 750 749 747 743 745 749 748 749 750 751 753 757 763 767 765 761 758 753 750 748 742 738 740 744 748 748 747 747 750 757 764 778 790 790 802 813 812 826 829 807 799 799 803 817 815 803 795 788 786 791 795 796 796 796 794 793 795 794 795
760 758 757 756 756 756 755 754 752 752 751 750 750 749 756 767 776 789 783 764 764 764 752 751 750 747 749 752 753 752 751 750 746 748 752 754 757 757 758 762 763 771 781 776 767 761 754 750 746 738 733 735 745 754 753 751 751 756 761 766 786 806 809 821 833 830 835 825 798 792 800 808 811 805 799 793 786 786 787 788 791 792 792 792 792 793 793 794
758 756 755 755 755 754 753 753 751 751 750 749 751 753 761 777 786 785 775 766 766 758 748 749 747 748 752 754 756 752 751 753 748 748 751 754 760 759 757 758 758 768 779 778 774 769 761 753 744 743 738 732 741 754 757 758 757 758 762 768 786 809 824 837 842 836 831 815 795 790 800 811 809 800 800 795 785 782 781 783 787 788 790 791 790 791 794 795
756 755 754 753 753 752 752 752 751 750 749 748 753 758 768 785 787 777 771 767 759 749 746 749 747 749 753 756 755 750 752 755 749 750 754 756 763 764 760 759 757 760 766 772 774 773 776 770 751 745 743 734 736 743 745 749 755 755 754 760 772 785 804 823 829 827 823 814 802 797 805 816 810 801 797 791 784 780 779 782 784 787 790 790 793 795 795 796
755 754 754 752 752 751 751 751 750 750 750 750 756 765 778 790 783 774 771 763 754 751 750 748 749 755 758 756 753 748 751 755 752 753 758 761 767 769 765 762 758 757 763 774 774 770 779 773 747 737 736 732 735 734 731 740 754 757 750 757 767 763 770 792 802 800 804 814 815 810 815 816 806 799 793 788 787 784 784 786 786 789 790 791 799 803 801 800
754 753 753 751 751 750 750 751 750 750 751 753 763 773 780 781 774 770 765 756 755 755 753 754 755 761 765 761 757 752 748 752 755 757 761 764 767 768 766 761 757 757 759 767 770 770 777 767 743 737 733 728 732 731 727 737 750 756 755 759 760 751 754 777 795 793 796 816 823 816 820 817 805 801 795 790 792 790 789 790 789 790 789 792 799 803 804 804
753 753 752 750 749 750 750 750 750 751 752 758 770 777 775 770 764 762 757 752 754 753 755 765 766 767 772 770 766 760 753 754 757 761 767 769 768 767 765 759 755 755 753 757 762 764 772 767 747 742 741 729 726 728 727 729 736 750 760 755 750 752 754 766 794 808 809 822 827 819 822 822 814 809 800 795 798 798 796 794 793 792 792 796 800 801 802 802
753 753 751 749 749 749 749 750 750 751 755 763 773 775 770 765 759 757 755 752 753 753 760 771 770 768 772 773 771 763 758 762 763 764 769 772 772 768 765 762 754 752 751 752 757 758 765 771 754 742 745 736 725 731 739 734 730 737 746 744 748 766 771 769 788 808 816 830 834 825 823 821 817 812 805 803 804 802 800 797 796 796 796 800 802 800 801 800
754 755 754 749 748 748 749 751 751 753 759 769 777 774 767 763 756 754 754 752 753 757 765 770 768 768 770 770 771 765 762 766 766 767 770 773 774 767 762 763 756 753 751 749 756 759 761 772 764 743 740 740 733 739 750 748 738 734 739 743 748 760 768 770 779 790 806 828 836 831 827 819 812 808 805 806 804 801 801 800 800 801 801 803 802 800 800 800
756 759 757 749 748 749 749 750 752 758 765 773 777 773 765 761 756 752 751 752 754 757 763 767 766 769 771 768 768 766 766 767 764 767 772 771 773 768 761 761 758 755 753 749 754 759 759 769 770 751 740 745 748 748 749 749 746 744 748 754 755 757 760 768 777 783 795 816 830 833 832 820 806 803 803 803 802 799 799 800 801 803 804 804 804 802 801 801
758 763 759 750 749 750 749 754 760 765 769 772 773 769 763 760 757 755 752 750 753 753 755 761 764 767 769 769 769 766 767 769 765 768 772 770 772 771 762 758 758 755 754 754 756 760 761 767 772 764 755 754 752 746 743 743 742 744 749 753 755 758 763 776 789 791 789 801 814 821 825 818 806 800 800 801 801 798 798 799 803 805 805 807 806 805 804 803
762 766 759 751 752 751 752 762 767 768 770 770 767 764 760 758 759 759 755 752 755 754 753 758 762 765 767 767 768 767 768 771 770 769 772 771 770 769 761 756 756 754 756 762 762 758 760 765 769 768 762 758 751 743 743 743 739 740 744 748 752 754 759 773 787 792 793 798 803 808 815 815 806 798 798 800 800 799 799 800 804 806 806 807 808 809 808 805
766 765 755 751 752 751 759 770 770 768 769 766 762 761 758 759 762 761 759 758 759 758 758 760 762 764 766 765 766 768 769 773 774 770 770 770 766 762 760 756 754 754 757 763 763 756 759 769 772 768 761 754 747 741 739 738 740 747 749 749 752 753 754 760 768 779 793 801 802 807 818 818 806 798 799 799 798 800 802 802 805 808 807 806 807 810 813 812
767 765 757 753 751 752 764 775 773 771 770 764 763 763 760 761 764 764 764 765 763 762 764 764 763 763 764 763 766 770 771 774 777 773 770 771 765 759 758 756 755 757 758 761 762 758 764 776 777 776 775 769 763 759 754 749 750 757 758 753 751 753 755 761 766 774 790 800 798 803 819 820 806 800 801 800 800 803 805 804 805 808 810 808 807 809 813 815
766 766 762 756 752 754 763 769 769 771 771 767 768 769 766 765 766 766 766 767 765 764 767 766 763 762 763 764 767 770 770 772 777 776 774 773 767 760 758 758 758 759 759 758 757 757 766 776 778 782 790 793 793 787 778 770 764 762 761 756 753 754 755 762 771 778 788 797 795 799 814 817 806 803 805 803 804 806 808 808 807 809 811 811 809 810 812 814
767 770 769 763 757 758 763 764 765 768 770 770 773 773 772 772 769 764 764 768 768 765 767 769 765 763 764 767 772 775 773 772 775 778 780 778 772 766 762 760 760 760 758 756 756 758 768 776 778 782 787 791 792 784 774 771 771 766 762 759 757 757 755 760 772 777 781 792 797 798 804 810 808 806 806 805 806 808 809 810 811 811 811 811 812 813 813 813
771 776 777 774 769 766 767 766 766 767 768 771 775 776 777 777 774 769 766 769 770 767 768 771 771 771 772 772 776 781 780 778 778 781 784 783 776 770 764 761 762 762 758 757 758 761 771 781 783 781 781 781 780 776 770 768 769 769 764 759 759 760 758 761 768 770 774 788 799 798 797 803 805 803 803 805 806 807 810 811 812 812 810 811 813 813 814 814
774 777 777 777 777 776 774 771 768 768 768 769 773 777 779 779 779 777 773 770 771 770 772 778 780 781 779 776 780 787 787 785 785 786 786 784 780 775 769 765 764 763 761 762 761 764 777 787 787 782 780 777 774 774 771 765 764 767 765 759 759 762 761 760 765 769 770 772 780 789 795 798 799 798 800 802 802 805 808 809 809 809 809 811 813 814 816 817
776 777 776 775 777 778 776 773 770 769 769 771 775 778 781 782 782 780 776 774 776 775 777 786 789 786 782 778 781 790 792 791 793 792 787 786 785 783 780 776 770 766 765 767 766 769 778 786 787 784 780 776 775 774 772 769 765 766 767 764 762 764 764 764 769 773 771 768 772 782 792 796 794 795 797 798 799 802 804 806 808 810 812 813 814 816 817 818
778 780 779 777 778 777 774 772 771 771 772 775 779 780 781 784 783 781 778 779 784 783 780 787 790 786 785 783 783 790 791 790 792 791 786 787 787 785 785 783 778 772 769 770 771 771 776 786 789 785 781 780 778 774 772 774 771 767 768 768 768 769 770 772 774 775 778 783 784 785 794 799 794 791 794 797 799 801 805 808 811 812 814 815 816 818 819 820
780 780 780 780 780 778 776 774 773 775 778 780 781 781 783 785 783 783 782 781 783 785 784 786 788 785 785 785 784 788 787 785 786 784 781 783 784 782 782 780 779 778 774 773 775 773 777 786 789 787 788 786 782 780 779 777 772 768 768 770 772 775 774 772 772 772 777 787 792 793 798 799 792 789 794 798 800 803 807 810 812 814 814 815 817 819 821 821
780 779 779 780 781 781 780 778 776 780 783 783 781 780 783 785 781 781 786 785 781 782 783 783 784 785 787 789 787 784 782 781 780 778 777 778 778 777 778 777 776 778 776 776 779 780 781 786 790 794 795 790 788 789 783 778 781 780 775 772 774 775 771 770 771 771 772 779 787 789 788 785 784 787 793 799 801 804 808 809 811 813 814 816 817 819 821 823